DW7087 Weather Reports


time (UTC)temp
C
wind
direction
speed
KPH
gust
KPH
rain 1hr
cm
rain 24hr
cm
rain mn
cm
humidity
%
barometer
mb
20260505183606 15 24 4.8 8.0 0.00 0.00 0.00 60 1011.7
20260505182706 15 30 4.8 8.0 0.00 0.00 0.00 60 1011.6
20260505181806 15 42 6.4 9.7 0.00 0.00 0.00 59 1011.7
20260505180906 15 8 6.4 9.7 0.00 0.00 0.00 58 1011.6
20260505180006 15 50 6.4 9.7 0.00 0.00 0.00 58 1011.6
20260505175427 15 37 8.0 12.9 0.00 0.00 0.00 57 1011.6
20260505174506 15 48 8.0 17.7 0.00 0.00 0.00 57 1011.7
20260505173606 16 37 8.0 17.7 0.00 0.00 0.00 57 1011.7
20260505172706 16 20 9.7 12.9 0.00 0.00 0.00 56 1011.7
20260505171806 16 55 8.0 12.9 0.00 0.00 0.00 54 1011.6
20260505170927 16 37 6.4 11.3 0.00 0.00 0.00 56 1011.7
20260505170027 16 31 6.4 12.9 0.00 0.00 0.00 56 1011.7
20260505165406 16 51 8.0 12.9 0.00 0.00 0.00 57 1011.7
20260505164506 16 27 8.0 11.3 0.00 0.00 0.00 56 1011.7
20260505163606 16 68 6.4 9.7 0.00 0.00 0.00 57 1011.8
20260505162706 15 27 6.4 9.7 0.00 0.00 0.00 57 1011.9
20260505161806 15 16 4.8 8.0 0.00 0.00 0.00 60 1011.8
20260505160906 15 360 4.8 8.0 0.00 0.00 0.00 60 1011.9
20260505152727 15 11 8.0 12.9 0.00 0.00 0.00 59 1011.9
20260505151805 16 91 8.0 12.9 0.00 0.00 0.00 56 1012.0
20260505150905 16 15 6.4 9.7 0.00 0.00 0.00 53 1012.0
20260505124505 16 41 8.0 11.3 0.00 0.00 0.00 53 1012.5
20260505123626 16 62 4.8 9.7 0.00 0.00 0.00 54 1012.6
20260505122706 16 51 6.4 9.7 0.00 0.00 0.00 52 1012.5
20260505121827 16 24 8.0 11.3 0.00 0.00 0.00 52 1012.5
20260505120906 17 23 6.4 12.9 0.00 0.00 0.00 53 1012.4
20260505120006 17 34 6.4 11.3 0.00 0.00 0.00 55 1012.5
20260505115427 16 358 4.8 8.0 0.00 0.00 0.00 60 1012.5
20260505114527 15 14 4.8 6.4 0.00 0.00 0.00 61 1012.6
20260505113605 15 40 6.4 12.9 0.00 0.00 0.00 59 1012.7
20260505112705 15 50 8.0 17.7 0.00 0.00 0.00 61 1012.7
20260505111806 15 44 6.4 9.7 0.00 0.00 0.00 65 1012.8
20260505110927 14 52 6.4 9.7 0.00 0.00 0.00 65 1013.0
20260505101805 13 349 4.8 9.7 0.00 0.00 0.00 70 1013.2
20260505100905 13 3 8.0 11.3 0.00 0.00 0.00 70 1013.1
20260505100006 13 35 8.0 12.9 0.00 0.00 0.00 71 1013.2
20260505095405 13 38 8.0 12.9 0.00 0.00 0.00 71 1013.3
20260505094505 13 68 6.4 12.9 0.00 0.00 0.00 73 1013.3
20260505093605 13 15 8.0 11.3 0.00 0.00 0.00 73 1013.3
20260505092705 13 43 6.4 8.0 0.00 0.00 0.00 74 1013.3
20260505091805 12 360 6.4 8.0 0.00 0.00 0.00 74 1013.4
20260505090906 12 45 6.4 9.7 0.00 0.00 0.00 75 1013.3
20260505090005 12 35 8.0 11.3 0.00 0.00 0.00 75 1013.4
20260505085427 12 21 8.0 11.3 0.00 0.00 0.00 74 1013.4
20260505084526 12 337 8.0 12.9 0.00 0.00 0.00 76 1013.5
20260505083605 12 29 8.0 12.9 0.00 0.00 0.00 79 1013.5
20260505082705 12 2 9.7 12.9 0.00 0.00 0.00 80 1013.6
20260505081827 12 4 6.4 12.9 0.00 0.00 0.00 81 1013.4
20260505080905 12 320 6.4 11.3 0.00 0.00 0.00 82 1013.6
20260505080005 12 76 6.4 11.3 0.00 0.00 0.00 82 1013.6
20260505075405 12 51 6.4 11.3 0.00 0.00 0.00 83 1013.5
20260505074526 11 34 4.8 8.0 0.00 0.00 0.00 84 1013.5
20260505073626 11 352 3.2 6.4 0.00 0.00 0.00 84 1013.6
20260505072705 11 42 4.8 8.0 0.00 0.00 0.00 84 1013.6
20260505071805 11 32 4.8 9.7 0.00 0.00 0.00 84 1013.6
20260505070905 11 37 6.4 8.0 0.00 0.00 0.00 84 1013.7
20260505070026 11 32 8.0 8.0 0.00 0.00 0.00 85 1013.7
20260505065405 11 42 8.0 9.7 0.00 0.00 0.00 86 1013.7
20260505064505 11 25 4.8 8.0 0.00 0.00 0.00 87 1013.7
20260505063605 11 39 4.8 6.4 0.00 0.00 0.00 88 1013.6
20260505062705 11 53 3.2 4.8 0.00 0.00 0.00 88 1013.6
20260505061805 11 41 1.6 4.8 0.00 0.00 0.00 88 1013.5
20260505060905 11 9 1.6 4.8 0.00 0.00 0.00 89 1013.5
20260505060005 10 46 3.2 6.4 0.00 0.00 0.00 89 1013.7
20260505055405 10 45 0.0 3.2 0.00 0.00 0.00 89 1013.8
20260505054505 10 45 1.6 3.2 0.00 0.00 0.00 89 1013.6
20260505053605 10 32 3.2 4.8 0.00 0.00 0.00 89 1013.7
20260505052726 10 50 1.6 4.8 0.00 0.00 0.00 89 1013.7
20260505051805 10 48 1.6 3.2 0.00 0.00 0.00 90 1013.7
20260505050905 10 0 0.0 0.0 0.00 0.00 0.00 90 1013.7
20260505040905 10 58 0.0 3.2 0.00 0.00 0.00 89 1013.9
20260505040005 10 45 1.6 6.4 0.00 0.00 0.00 89 1014.0
20260505035426 10 42 1.6 6.4 0.00 0.00 0.00 89 1013.8
20260505034505 10 49 1.6 3.2 0.00 0.00 0.00 89 1013.8
20260505033605 10 53 1.6 3.2 0.00 0.00 0.00 89 1013.9
20260505032726 10 45 0.0 3.2 0.00 0.00 0.00 89 1013.9
20260505031805 10 343 1.6 3.2 0.00 0.00 0.00 89 1013.9
20260505030905 10 38 0.0 3.2 0.00 0.00 0.00 88 1013.9
20260505030005 10 0 0.0 0.0 0.00 0.00 0.00 88 1013.9
20260505025405 10 0 0.0 0.0 0.00 0.00 0.00 88 1013.8
20260505024505 10 45 0.0 1.6 0.00 0.00 0.00 87 1013.8
20260505023605 10 22 0.0 1.6 0.00 0.00 0.00 87 1013.8
20260505022705 10 0 0.0 0.0 0.00 0.00 0.00 87 1013.8
20260505021805 10 0 0.0 0.0 0.00 0.00 0.00 86 1013.8
20260505020905 10 0 0.0 0.0 0.00 0.00 0.00 85 1014.0
20260505020026 10 0 0.0 0.0 0.00 0.00 0.00 85 1013.9
20260505015405 11 0 0.0 0.0 0.00 0.00 0.00 84 1014.1
20260505014505 11 357 1.6 3.2 0.00 0.00 0.00 83 1014.0
20260505013605 11 41 3.2 6.4 0.00 0.00 0.00 83 1014.0
20260505012705 11 45 1.6 4.8 0.00 0.00 0.00 83 1014.2
20260505011805 11 13 1.6 6.4 0.00 0.00 0.00 83 1014.4
20260505010905 11 41 3.2 6.4 0.00 0.00 0.00 83 1014.5
20260505010005 11 293 1.6 4.8 0.00 0.00 0.00 83 1014.5
20260505005426 11 15 1.6 4.8 0.00 0.00 0.00 83 1014.5
20260505004526 12 71 0.0 3.2 0.00 0.00 0.00 82 1014.4
20260505003605 12 27 1.6 3.2 0.00 0.00 0.00 82 1014.6
20260505002705 12 25 4.8 6.4 0.00 0.00 0.00 82 1014.6
20260505001805 12 32 3.2 6.4 0.00 0.00 0.00 82 1014.5
20260505000926 12 47 3.2 6.4 0.00 0.00 0.00 82 1014.4
20260505000005 12 33 1.6 4.8 0.00 0.00 0.00 82 1014.6
20260504235405 12 41 3.2 9.7 0.00 0.00 0.00 82 1014.7
20260504234505 12 45 0.0 3.2 0.00 0.00 0.00 82 1014.8
20260504233605 12 0 0.0 0.0 0.00 0.00 0.00 81 1014.8
20260504232705 12 0 0.0 0.0 0.00 0.00 0.00 81 1014.9
20260504231805 12 45 0.0 3.2 0.00 0.00 0.00 81 1014.9
20260504230905 12 40 1.6 4.8 0.00 0.00 0.00 81 1014.9
20260504230026 12 69 1.6 3.2 0.00 0.00 0.00 81 1015.0
20260504225405 12 77 1.6 3.2 0.00 0.00 0.00 81 1014.8
20260504224526 12 51 4.8 8.0 0.00 0.00 0.00 80 1015.0
20260504223626 12 25 4.8 6.4 0.00 0.00 0.00 80 1014.9
20260504222705 12 55 4.8 6.4 0.00 0.00 0.00 79 1014.9
20260504221805 12 61 4.8 6.4 0.00 0.00 0.00 79 1015.0
20260504220926 13 56 4.8 8.0 0.00 0.00 0.00 78 1015.0
20260504220026 13 65 4.8 9.7 0.00 0.00 0.00 78 1014.9
20260504215405 13 60 4.8 8.0 0.00 0.00 0.00 78 1015.1
20260504214505 13 36 4.8 6.4 0.00 0.00 0.00 78 1015.1
20260504213626 13 50 4.8 9.7 0.00 0.00 0.00 78 1015.1
20260504212705 13 46 3.2 6.4 0.00 0.00 0.00 78 1015.2
20260504211805 13 48 4.8 6.4 0.00 0.00 0.00 78 1015.2
20260504210905 13 44 4.8 6.4 0.00 0.00 0.00 77 1015.1
20260504210005 13 47 6.4 9.7 0.00 0.00 0.00 77 1015.2
20260504205405 13 39 6.4 9.7 0.00 0.00 0.00 77 1015.2
20260504204505 13 20 6.4 6.4 0.00 0.00 0.00 77 1015.2
20260504203605 13 49 6.4 11.3 0.00 0.00 0.00 77 1015.1
20260504202705 13 40 4.8 6.4 0.00 0.00 0.00 77 1015.0
20260504201805 13 45 6.4 8.0 0.00 0.00 0.00 77 1015.0
20260504200905 13 33 6.4 11.3 0.00 0.00 0.00 76 1014.9
20260504200005 13 34 8.0 9.7 0.00 0.00 0.00 76 1014.9
20260504195405 14 36 8.0 9.7 0.00 0.00 0.00 76 1014.9
20260504194505 14 50 6.4 8.0 0.00 0.00 0.00 75 1014.8
20260504193605 14 8 6.4 6.4 0.00 0.00 0.00 75 1014.8
20260504192705 15 52 4.8 8.0 0.00 0.00 0.00 74 1014.6
20260504191829 15 26 6.4 9.7 0.00 0.00 0.00 73 1014.6
20260504190905 15 32 4.8 6.4 0.00 0.00 0.00 72 1014.6
20260504190005 15 63 3.2 6.4 0.00 0.00 0.00 72 1014.5
20260504185405 15 82 4.8 8.0 0.00 0.00 0.00 72 1014.5
20260504184505 15 69 4.8 8.0 0.00 0.00 0.00 72 1014.4